deb IS-33e

Debris
NORAD ID: 64396 Int'l Des: 2016-053 Owner: INTELU Country: US
HEO

关于 deb IS-33e

正在加载描述...

实时位置

正在加载3D地球...

即将过境

高度历史

Altitude vs Time

uPlot chart will show altitude changes over time

两行轨道根数

1 64396U 16053AA 25340.71350661 -.00000216 00000-0 00000-0 0 9996
2 64396 1.0718 84.5036 0113272 59.5063 300.2578 0.98613417 4083
Epoch: Dec 6, 2025 • Age: 24 hours

当前状态

高度 36032.6 km
速度 3.07 km/s
星下点 -0.04°S, 104.5°E
发射日期 Aug 24, 2016
运行时间 9.2 years
类型 debris

技术详情

分类 Fragmentation Debris
质量 0.00 kg
干质量 0.00 kg
总质量 0.00 kg
长度 0.00 m
直径 0.00 m
跨度 0.00 m
制造商 BOES
阶段状态 In Orbit
所有者/国家 INTELU/US

大型星座

Loading constellations...